Weather History for Cut Bank, MT

Change the Weather History Date:

Wednesday, April 17, 2013

  Actual Average Record
Temperature  
Mean Temperature 28 °F 41 °F  
Max Temperature 42 °F 54 °F 80 °F (1923)
Min Temperature 13 °F 29 °F 10 °F (1953)
Degree Days  
Heating Degree Days 37 24  
Month to date heating degree days 526 440  
Since 1 July heating degree days 7320 7538  
Cooling Degree Days 0 0  
Month to date cooling degree days 0 0  
Year to date cooling degree days 0 0  
Moisture  
Dew Point 14 °F    
Average Humidity 59    
Maximum Humidity 92    
Minimum Humidity 25    
Precipitation  
Precipitation 0.00 in 0.03 in 0.68 in (1978)
Month to date precipitation 0.52 0.38  
Year to date precipitation 1.82 1.29  
Snow  
Snow 0.00 in - - ()
Snow Depth 0.00 in    
Sea Level Pressure  
Sea Level Pressure 30.37 in    
Wind  
Wind Speed 7 mph (WNW)    
Max Wind Speed 17 mph    
Max Gust Speed 20 mph    
Visibility 10 miles    
Events      
T = Trace of Precipitation, MM = Missing Value Source: NWS Daily Summary

Daily Weather History Graph

Daily Weather History Graph

Search for Another Location

Airport:

Trip Planner

Search our weather history database for the weather conditions in past years. The results will help you decide how hot, cold, wet, or windy it might be!

Date:

Astronomy

Apr. 17, 2013 Rise Set
Actual Time 6:34 AM MDT 8:24 PM MDT
Civil Twilight 6:01 AM MDT 8:57 PM MDT
Nautical Twilight 5:20 AM MDT 9:39 PM MDT
Astronomical Twilight 4:35 AM MDT 10:24 PM MDT
Moon 11:42 AM MDT (4/17) 2:14 AM MDT (4/17)
Length of Visible Light 14h 56m
Length of Day
13h 49m
Waxing Crescent, 43% of the Moon is Illuminated
Apr 17
Waxing Crescent
Apr 18
First Quarter
Apr 25
Full
May 2
Last Quarter
May 9
New

Hourly Weather History & Observations

Time (MDT) Temp. Windchill Dew Point Humidity Pressure Visibility Wind Dir Wind Speed Gust Speed Precip Events Conditions
12:56 AM 19.0 °F 6.1 °F 16.0 °F 88% 30.45 in 10.0 mi NNW 12.7 mph - N/A   Clear
1:56 AM 18.0 °F 5.4 °F 15.1 °F 88% 30.45 in 10.0 mi NNW 11.5 mph - N/A   Clear
2:56 AM 15.1 °F 2.5 °F 12.0 °F 88% 30.44 in 10.0 mi North 10.4 mph - N/A   Clear
3:56 AM 14.0 °F 2.9 °F 10.9 °F 88% 30.44 in 10.0 mi NNE 8.1 mph - N/A   Scattered Clouds
4:56 AM 17.1 °F - 12.9 °F 84% 30.43 in 10.0 mi Calm Calm - N/A   Overcast
5:56 AM 17.1 °F 7.6 °F 12.9 °F 84% 30.42 in 10.0 mi NW 6.9 mph - N/A   Mostly Cloudy
6:56 AM 15.1 °F 7.7 °F 10.0 °F 80% 30.43 in 10.0 mi West 4.6 mph - N/A   Partly Cloudy
7:56 AM 17.1 °F 6.6 °F 12.0 °F 81% 30.44 in 10.0 mi WNW 8.1 mph - N/A   Partly Cloudy
8:56 AM 21.0 °F 16.2 °F 16.0 °F 81% 30.43 in 10.0 mi WNW 3.5 mph - N/A   Clear
9:56 AM 25.0 °F 15.5 °F 18.0 °F 75% 30.42 in 10.0 mi WNW 9.2 mph - N/A   Mostly Cloudy
10:06 AM 26.6 °F 19.1 °F 17.6 °F 69% 30.28 in 10.0 mi NW 6.9 mph - N/A   Scattered Clouds
10:56 AM 28.0 °F 22.8 °F 18.0 °F 66% 30.41 in 10.0 mi WNW 4.6 mph - N/A   Clear
11:56 AM 30.9 °F 24.3 °F 19.9 °F 64% 30.40 in 10.0 mi West 6.9 mph - N/A   Scattered Clouds
12:56 PM 33.1 °F 26.1 °F 16.0 °F 50% 30.39 in 10.0 mi NW 8.1 mph - N/A   Clear
1:56 PM 35.1 °F 29.3 °F 18.0 °F 50% 30.37 in 10.0 mi SW 6.9 mph - N/A   Partly Cloudy
2:56 PM 37.9 °F 31.5 °F 10.0 °F 32% 30.36 in 10.0 mi WNW 9.2 mph - N/A   Clear
3:56 PM 39.0 °F 32.8 °F 6.1 °F 26% 30.34 in 10.0 mi WNW 9.2 mph - N/A   Clear
4:56 PM 39.9 °F 33.9 °F 7.0 °F 26% 30.32 in 10.0 mi WNW 9.2 mph - N/A   Clear
5:56 PM 39.9 °F 34.5 °F 8.1 °F 27% 30.31 in 10.0 mi NW 8.1 mph - N/A   Clear
6:56 PM 39.9 °F 36.7 °F 9.0 °F 28% 30.30 in 10.0 mi NW 4.6 mph - N/A   Clear
7:56 PM 37.0 °F 33.3 °F 14.0 °F 39% 30.29 in 10.0 mi SE 4.6 mph - N/A   Clear
8:56 PM 28.9 °F 25.2 °F 19.9 °F 69% 30.30 in 10.0 mi South 3.5 mph - N/A   Clear
9:56 PM 28.0 °F 22.8 °F 18.0 °F 66% 30.29 in 10.0 mi South 4.6 mph - N/A   Clear
10:56 PM 28.0 °F 19.3 °F 18.0 °F 66% 30.27 in 10.0 mi SE 9.2 mph - N/A   Clear
11:56 PM 27.0 °F 18.7 °F 17.1 °F 66% 30.24 in 10.0 mi SSE 8.1 mph - N/A   Clear